KD8OSM Weather Reports


time (UTC)temp
C
wind
direction
speed
KPH
gust
KPH
rain 1hr
cm
rain 24hr
cm
rain mn
cm
humidity
%
barometer
mb
20260502170226 7 342 3.2 14.5 0.00 0.00 0.00 47 1018.1
20260502164226 7 298 3.2 14.5 0.00 0.00 0.00 48 1018.2
20260502162213 7 288 3.2 14.5 0.00 0.00 0.00 48 1018.2
20260502161224 7 295 3.2 11.3 0.00 0.00 0.00 48 1018.2
20260502160227 7 276 3.2 14.5 0.00 0.00 0.00 49 1018.4
20260502152220 6 300 1.6 12.9 0.00 0.00 0.00 51 1018.2
20260502151212 7 295 3.2 9.7 0.00 0.00 0.00 51 1018.2
20260502150215 6 288 6.4 12.9 0.00 0.03 0.00 48 1018.2
20260502130227 4 347 1.6 9.7 0.00 0.03 0.00 76 1018.3
20260502123220 3 94 0.0 4.8 0.00 0.03 0.00 83 1018.3
20260502122210 3 266 1.6 8.0 0.00 0.03 0.00 83 1018.2
20260502121225 3 276 0.0 3.2 0.00 0.03 0.00 86 1018.2
20260502120210 2 295 1.6 4.8 0.00 0.03 0.00 88 1018.2
20260502115222 1 273 0.0 3.2 0.00 0.03 0.00 92 1018.2
20260502114214 0 288 0.0 1.6 0.00 0.03 0.00 93 1018.1
20260502113228 0 139 0.0 0.0 0.00 0.03 0.00 92 1018.1
20260502112219 -17 0.0 0.0 0.00 0.03 0.00 1017.9
20260502111228 -17 0.0 0.0 0.00 0.03 0.00 1017.7
20260502110233 -17 0.0 0.0 0.00 0.03 0.00 1017.7
20260502103220 -17 0.0 0.0 0.00 0.03 0.00 1017.7
20260502102212 -17 0.0 0.0 0.00 0.03 0.00 1017.6
20260502101301 -17 0.0 0.0 0.00 0.03 0.00 1017.6
20260502100217 -17 0.0 0.0 0.00 0.03 0.00 1017.6
20260502091229 1 139 0.0 0.0 0.00 0.03 0.00 86 1017.4
20260502090213 1 139 0.0 0.0 0.00 0.03 0.00 85 1017.3
20260502071217 2 137 0.0 1.6 0.00 0.03 0.00 83 1017.0
20260502070223 2 137 0.0 0.0 0.00 0.03 0.00 83 1017.1
20260502065217 2 137 0.0 0.0 0.00 0.03 0.00 83 1017.2
20260502064227 2 114 0.0 1.6 0.00 0.03 0.00 82 1017.3
20260502063219 3 60 0.0 1.6 0.00 0.03 0.00 83 1017.4
20260502062214 3 61 0.0 1.6 0.00 0.03 0.00 82 1017.4
20260502061224 3 59 0.0 1.6 0.00 0.03 0.00 82 1017.5
20260502060209 3 68 0.0 0.0 0.00 0.03 0.00 82 1017.5
20260502055220 3 68 0.0 1.6 0.00 0.03 0.00 81 1017.5
20260502054214 3 67 0.0 1.6 0.00 0.03 0.00 81 1017.6
20260502053226 3 94 0.0 1.6 0.00 0.03 0.00 79 1017.5
20260502052215 3 94 0.0 1.6 0.00 0.03 0.00 79 1017.6
20260502051246 3 94 0.0 1.6 0.00 0.03 0.00 78 1017.5
20260502050213 3 94 0.0 1.6 0.00 0.03 0.00 78 1017.4
20260502045224 3 113 0.0 1.6 0.00 0.03 0.00 77 1017.3
20260502044214 3 113 0.0 1.6 0.00 0.03 0.00 76 1017.2
20260502043226 3 135 0.0 4.8 0.00 0.03 0.00 76 1017.1
20260502042221 3 101 0.0 6.4 0.00 0.03 0.00 76 1017.2
20260502041211 3 114 0.0 6.4 0.00 0.03 0.00 75 1017.1
20260502040216 4 112 0.0 1.6 0.00 0.03 0.03 74 1017.1
20260502035248 4 105 0.0 3.2 0.00 0.03 0.03 73 1017.1
20260502034221 4 108 0.0 4.8 0.00 0.03 0.03 72 1016.9
20260502033212 5 131 0.0 6.4 0.00 0.03 0.03 72 1016.9
20260502032224 5 72 1.6 8.0 0.00 0.03 0.03 70 1016.7
20260502031219 6 66 1.6 9.7 0.00 0.03 0.03 64 1016.6
20260502030221 6 322 1.6 8.0 0.00 0.03 0.03 63 1016.5
20260502025232 6 295 0.0 4.8 0.00 0.03 0.03 63 1016.4
20260502024221 6 315 3.2 11.3 0.00 0.03 0.03 63 1016.5
20260502023216 6 302 1.6 8.0 0.00 0.03 0.03 62 1016.5
20260502022248 6 276 1.6 9.7 0.00 0.03 0.03 62 1016.5
20260502021218 6 288 0.0 8.0 0.00 0.03 0.03 64 1016.3
20260502020223 6 313 1.6 9.7 0.00 0.03 0.03 64 1016.3
20260502015219 6 331 0.0 3.2 0.00 0.03 0.03 64 1016.2
20260502014249 6 283 0.0 6.4 0.00 0.03 0.03 64 1016.1
20260502013221 6 288 1.6 6.4 0.00 0.03 0.03 63 1016.1
20260502012211 6 301 1.6 6.4 0.00 0.03 0.03 63 1016.0
20260502011227 6 263 0.0 3.2 0.00 0.03 0.03 63 1015.9
20260502010230 6 293 1.6 8.0 0.00 0.03 0.03 62 1015.8
20260502005221 6 307 1.6 9.7 0.00 0.03 0.03 63 1015.8
20260502004213 6 285 1.6 11.3 0.00 0.03 0.03 63 1015.7
20260502003243 6 300 1.6 11.3 0.00 0.03 0.03 63 1015.6
20260502002216 7 360 3.2 8.0 0.00 0.03 0.03 63 1015.6
20260502001249 7 300 3.2 8.0 0.00 0.03 0.03 63 1015.5
20260502000212 7 297 1.6 4.8 0.00 0.03 0.03 64 1015.4
20260501235223 7 349 1.6 8.0 0.00 0.03 0.03 63 1015.4
20260501234220 7 262 0.0 6.4 0.00 0.03 0.03 63 1015.3
20260501233209 7 336 0.0 11.3 0.00 0.03 0.03 63 1015.1
20260501232222 7 331 3.2 8.0 0.00 0.03 0.03 62 1015.2
20260501231237 7 140 1.6 11.3 0.00 0.03 0.03 62 1015.1
20260501230219 7 6 1.6 9.7 0.00 0.03 0.03 64 1015.2
20260501225210 7 321 0.0 14.5 0.00 0.03 0.03 64 1015.1
20260501224241 7 349 1.6 4.8 0.00 0.03 0.03 60 1015.1
20260501223217 8 259 3.2 12.9 0.00 0.03 0.03 60 1015.1
20260501222226 8 289 1.6 8.0 0.00 0.03 0.03 61 1015.0
20260501221218 8 313 4.8 16.1 0.00 0.03 0.03 58 1014.9
20260501220222 8 25 6.4 9.7 0.00 0.03 0.03 56 1014.7
20260501215216 9 284 1.6 8.0 0.00 0.03 0.03 56 1014.6
20260501214248 9 287 1.6 11.3 0.00 0.03 0.03 56 1014.5
20260501213218 8 302 3.2 12.9 0.00 0.03 0.03 55 1014.5
20260501212228 8 295 6.4 11.3 0.00 0.03 0.03 54 1014.5
20260501211245 8 312 1.6 14.5 0.00 0.03 0.03 56 1014.3
20260501210249 9 302 4.8 12.9 0.00 0.03 0.03 54 1014.3
20260501205217 9 296 0.0 9.7 0.00 0.03 0.03 56 1014.2
20260501204249 9 338 1.6 4.8 0.00 0.03 0.03 55 1014.3
20260501203218 10 294 1.6 8.0 0.00 0.03 0.03 55 1014.2
20260501202213 9 333 1.6 8.0 0.00 0.03 0.03 57 1014.3
20260501201224 8 11 1.6 11.3 0.00 0.03 0.03 56 1014.3
20260501200228 8 300 1.6 14.5 0.00 0.03 0.03 56 1014.2
20260501195240 9 354 0.0 9.7 0.00 0.03 0.03 55 1014.2
20260501194214 10 276 3.2 8.0 0.00 0.03 0.03 55 1014.1
20260501193245 10 302 1.6 8.0 0.00 0.03 0.03 54 1014.0
20260501192215 10 260 0.0 8.0 0.00 0.03 0.03 56 1014.0
20260501191212 9 132 1.6 8.0 0.00 0.03 0.03 57 1014.0
20260501190217 9 291 3.2 12.9 0.00 0.03 0.03 53 1014.0
20260501185249 10 329 0.0 8.0 0.00 0.03 0.03 54 1013.8
20260501184219 10 7 1.6 8.0 0.00 0.03 0.03 51 1013.7
20260501183213 10 63 1.6 9.7 0.00 0.03 0.03 54 1013.5
20260501182246 10 62 0.0 11.3 0.00 0.03 0.03 53 1013.6
20260501181218 10 127 0.0 8.0 0.00 0.03 0.03 52 1013.5
20260501180223 10 320 3.2 9.7 0.00 0.03 0.03 52 1013.6
20260501175221 10 269 0.0 4.8 0.00 0.03 0.03 55 1013.5
20260501174235 9 295 0.0 4.8 0.00 0.03 0.03 55 1013.5
20260501173227 9 329 1.6 8.0 0.00 0.03 0.03 56 1013.6
20260501172220 9 318 0.0 8.0 0.00 0.03 0.03 58 1013.7